"read_dt","SO2 (ppb)","flags","PMT voltage (V)","lamp voltage (V)","lamp intensity (Hz)","internal temp (C)","react chamber temp (C)","sample flow (l/min)","pres (mmHg)","SO2 bkg (ppb)","SO2 coefficient"
2016-08-24 00:00:00,2146E-3,5C000400,-0723,0826,12175,031.8,045.6,0.248,743.2,01.18,0.508
2016-08-24 00:01:00,2157E-3,5C000400,-0723,0825,12256,031.8,045.5,0.248,743.2,01.18,0.508
2016-08-24 00:02:00,2092E-3,5C000400,-0723,0826,12322,031.8,045.5,0.247,743.2,01.18,0.508
2016-08-24 00:03:00,2127E-3,5C000400,-0723,0826,12325,031.8,045.6,0.247,743.2,01.18,0.508
2016-08-24 00:04:00,2202E-3,5C000400,-0723,0826,12203,031.8,045.6,0.248,743.2,01.18,0.508
2016-08-24 00:05:00,2120E-3,5C000400,-0723,0825,12278,031.8,045.6,0.248,743.1,01.18,0.508
2016-08-24 00:06:00,2099E-3,5C000400,-0723,0826,12217,031.8,045.6,0.248,743.2,01.18,0.508
2016-08-24 00:07:00,2176E-3,5C000400,-0723,0825,12133,031.8,045.5,0.247,743.2,01.18,0.508
2016-08-24 00:08:00,2286E-3,5C000400,-0723,0825,12203,031.8,045.6,0.247,743.2,01.18,0.508
2016-08-24 00:09:00,1938E-3,5C000400,-0723,0826,12359,031.8,045.6,0.248,743.2,01.18,0.508
2016-08-24 00:10:00,2259E-3,5C000400,-0723,0826,12310,031.8,045.6,0.248,743.2,01.18,0.508
2016-08-24 00:11:00,2121E-3,5C000400,-0723,0826,12285,031.8,045.6,0.247,743.2,01.18,0.508
2016-08-24 00:12:00,1938E-3,5C000400,-0723,0827,12369,031.8,045.6,0.247,743.2,01.18,0.508
2016-08-24 00:13:00,2057E-3,5C000400,-0723,0826,12243,031.8,045.6,0.247,743.2,01.18,0.508
2016-08-24 00:14:00,2043E-3,5C000400,-0723,0826,12267,031.8,045.6,0.248,743.2,01.18,0.508
2016-08-24 00:15:00,2250E-3,5C000400,-0723,0825,12309,031.9,045.5,0.248,743.2,01.18,0.508
2016-08-24 00:16:00,2104E-3,5C000400,-0723,0826,12244,031.9,045.6,0.247,743.2,01.18,0.508
2016-08-24 00:17:00,2136E-3,5C000400,-0723,0826,12158,031.9,045.6,0.247,743.3,01.18,0.508
2016-08-24 00:18:00,2253E-3,5C000400,-0723,0826,12338,031.9,045.6,0.247,743.2,01.18,0.508
2016-08-24 00:19:00,2145E-3,5C000400,-0723,0826,12247,031.9,045.6,0.248,743.3,01.18,0.508
2016-08-24 00:20:00,2139E-3,5C000400,-0723,0826,12201,031.9,045.6,0.247,743.3,01.18,0.508
2016-08-24 00:21:00,2150E-3,5C000400,-0723,0825,12192,031.9,045.6,0.247,743.3,01.18,0.508
2016-08-24 00:22:00,2158E-3,5C000400,-0723,0826,12305,032.0,045.6,0.247,743.2,01.18,0.508
2016-08-24 00:23:00,2170E-3,5C000400,-0723,0826,11980,032.0,045.6,0.247,743.2,01.18,0.508
2016-08-24 00:24:00,2144E-3,5C000400,-0723,0826,12278,032.0,045.6,0.247,743.2,01.18,0.508
2016-08-24 00:25:00,2263E-3,5C000400,-0723,0826,12323,032.0,045.6,0.247,743.2,01.18,0.508
2016-08-24 00:26:00,2103E-3,5C000400,-0723,0825,12028,032.1,045.6,0.247,743.2,01.18,0.508
2016-08-24 00:27:00,2171E-3,5C000400,-0723,0826,12280,032.1,045.6,0.247,743.2,01.18,0.508
2016-08-24 00:28:00,2027E-3,5C000400,-0723,0826,12256,032.1,045.6,0.247,743.2,01.18,0.508
2016-08-24 00:29:00,2000E-3,5C000400,-0723,0825,11998,032.2,045.6,0.247,743.1,01.18,0.508
2016-08-24 00:30:00,2127E-3,5C000400,-0723,0826,12109,032.2,045.6,0.247,743.1,01.18,0.508
2016-08-24 00:31:00,2295E-3,5C000400,-0723,0825,12223,032.3,045.6,0.247,743.1,01.18,0.508
2016-08-24 00:32:00,2200E-3,5C000400,-0723,0825,12271,032.3,045.6,0.247,743.2,01.18,0.508
2016-08-24 00:33:00,2155E-3,5C000400,-0723,0826,12313,032.3,045.6,0.247,743.1,01.18,0.508
2016-08-24 00:34:00,2167E-3,5C000400,-0723,0825,12327,032.3,045.6,0.247,743.2,01.18,0.508
2016-08-24 00:35:00,2227E-3,5C000400,-0723,0826,12253,032.4,045.6,0.246,743.2,01.18,0.508
2016-08-24 00:36:00,2103E-3,5C000400,-0723,0826,12235,032.4,045.6,0.246,743.2,01.18,0.508
2016-08-24 00:37:00,2125E-3,5C000400,-0723,0826,12240,032.4,045.6,0.246,743.2,01.18,0.508
2016-08-24 00:38:00,2125E-3,5C000400,-0723,0826,12124,032.5,045.6,0.247,743.2,01.18,0.508
2016-08-24 00:39:00,2183E-3,5C000400,-0723,0826,12057,032.5,045.6,0.247,743.1,01.18,0.508
2016-08-24 00:40:00,2097E-3,5C000400,-0723,0825,12188,032.5,045.6,0.246,743.2,01.18,0.508
2016-08-24 00:41:00,2081E-3,5C000400,-0723,0826,12246,032.5,045.6,0.246,743.2,01.18,0.508
2016-08-24 00:42:00,2204E-3,5C000400,-0723,0825,12113,032.6,045.6,0.246,743.2,01.18,0.508
2016-08-24 00:43:00,2169E-3,5C000400,-0723,0825,12380,032.6,045.6,0.247,743.2,01.18,0.508
2016-08-24 00:44:00,2147E-3,5C000400,-0723,0826,12275,032.6,045.6,0.247,743.2,01.18,0.508
2016-08-24 00:45:00,2193E-3,5C000400,-0723,0826,12241,032.6,045.6,0.246,743.1,01.18,0.508
2016-08-24 00:46:00,2210E-3,5C000400,-0723,0826,12077,032.6,045.6,0.246,743.1,01.18,0.508
2016-08-24 00:47:00,2074E-3,5C000400,-0723,0825,12250,032.7,045.6,0.246,743.2,01.18,0.508
2016-08-24 00:48:00,2095E-3,5C000400,-0723,0827,12269,032.7,045.6,0.246,743.1,01.18,0.508
2016-08-24 00:49:00,2015E-3,5C000400,-0723,0826,12241,032.7,045.6,0.246,743.2,01.18,0.508
2016-08-24 00:50:00,2224E-3,5C000400,-0723,0827,12266,032.7,045.6,0.245,743.2,01.18,0.508
2016-08-24 00:51:00,2116E-3,5C000400,-0723,0826,12280,032.8,045.6,0.246,743.1,01.18,0.508
2016-08-24 00:52:00,2075E-3,5C000400,-0723,0827,12280,032.8,045.6,0.246,743.1,01.18,0.508
2016-08-24 00:53:00,2113E-3,5C000400,-0723,0826,12235,032.8,045.6,0.246,743.1,01.18,0.508
2016-08-24 00:54:00,2132E-3,5C000400,-0723,0826,12237,032.8,045.6,0.245,743.1,01.18,0.508
2016-08-24 00:55:00,2218E-3,5C000400,-0723,0826,12313,032.8,045.6,0.245,743.1,01.18,0.508
2016-08-24 00:56:00,2135E-3,5C000400,-0723,0826,12232,032.9,045.6,0.246,743.2,01.18,0.508
2016-08-24 00:57:00,2103E-3,5C000400,-0723,0827,12116,032.9,045.6,0.246,743.1,01.18,0.508
2016-08-24 00:58:00,2211E-3,5C000400,-0723,0826,12108,032.9,045.6,0.245,743.2,01.18,0.508
2016-08-24 00:59:00,2108E-3,5C000400,-0723,0827,12380,032.9,045.6,0.245,743.1,01.18,0.508
2016-08-24 01:00:00,2151E-3,5C000400,-0723,0827,12162,032.9,045.6,0.245,743.1,01.18,0.508
2016-08-24 01:01:00,2252E-3,5C000400,-0723,0827,12217,032.9,045.6,0.246,743.1,01.18,0.508
2016-08-24 01:02:00,2085E-3,5C000400,-0723,0826,12174,033.0,045.6,0.245,743.1,01.18,0.508
2016-08-24 01:03:00,2267E-3,5C000400,-0723,0827,12135,033.0,045.6,0.245,743.1,01.18,0.508
2016-08-24 01:04:00,2085E-3,5C000400,-0723,0826,12184,033.0,045.6,0.245,743.1,01.18,0.508
2016-08-24 01:05:00,2299E-3,5C000400,-0723,0826,12088,033.0,045.6,0.245,743.1,01.18,0.508
2016-08-24 01:06:00,2200E-3,5C000400,-0723,0826,12289,033.0,045.6,0.245,743.1,01.18,0.508
2016-08-24 01:07:00,2151E-3,5C000400,-0723,0826,12231,033.0,045.6,0.245,743.1,01.18,0.508
2016-08-24 01:08:00,2032E-3,5C000400,-0723,0826,12275,033.0,045.6,0.245,743.1,01.18,0.508
2016-08-24 01:09:00,2183E-3,5C000400,-0723,0826,12177,033.0,045.6,0.245,743.1,01.18,0.508
2016-08-24 01:10:00,2234E-3,5C000400,-0723,0826,12125,033.0,045.6,0.245,743.1,01.18,0.508
2016-08-24 01:11:00,2150E-3,5C000400,-0723,0827,12132,033.1,045.6,0.245,743.1,01.18,0.508
2016-08-24 01:12:00,2101E-3,5C000400,-0723,0827,12273,033.1,045.6,0.245,743.1,01.18,0.508
2016-08-24 01:13:00,2203E-3,5C000400,-0723,0826,12137,033.1,045.6,0.245,743.1,01.18,0.508
2016-08-24 01:14:00,2176E-3,5C000400,-0723,0827,12221,033.1,045.6,0.245,743.1,01.18,0.508
2016-08-24 01:15:00,2099E-3,5C000400,-0723,0826,12253,033.1,045.6,0.245,743.0,01.18,0.508
2016-08-24 01:16:00,2324E-3,5C000400,-0723,0827,12071,033.1,045.6,0.245,743.1,01.18,0.508
2016-08-24 01:17:00,2056E-3,5C000400,-0723,0826,12255,033.1,045.6,0.245,743.1,01.18,0.508
2016-08-24 01:18:00,2273E-3,5C000400,-0723,0826,12200,033.1,045.6,0.244,743.1,01.18,0.508
2016-08-24 01:19:00,2194E-3,5C000400,-0723,0826,12129,033.1,045.6,0.245,743.1,01.18,0.508
2016-08-24 01:20:00,2155E-3,5C000400,-0723,0825,12207,033.2,045.6,0.245,743.1,01.18,0.508
2016-08-24 01:21:00,2257E-3,5C000400,-0723,0827,12307,033.2,045.6,0.245,743.1,01.18,0.508
2016-08-24 01:22:00,2131E-3,5C000400,-0723,0826,12244,033.2,045.6,0.244,743.1,01.18,0.508
2016-08-24 01:23:00,2069E-3,5C000400,-0723,0826,12092,033.2,045.6,0.245,743.1,01.18,0.508
2016-08-24 01:24:00,2176E-3,5C000400,-0723,0827,12243,033.2,045.6,0.245,743.1,01.18,0.508
2016-08-24 01:25:00,2246E-3,5C000400,-0723,0827,12191,033.2,045.6,0.244,743.1,01.18,0.508
2016-08-24 01:26:00,2226E-3,5C000400,-0723,0826,12184,033.2,045.6,0.245,743.1,01.18,0.508
2016-08-24 01:27:00,2206E-3,5C000400,-0723,0826,12188,033.2,045.6,0.245,743.1,01.18,0.508
2016-08-24 01:28:00,2196E-3,5C000400,-0723,0826,12261,033.2,045.6,0.245,743.1,01.18,0.508
2016-08-24 01:29:00,2071E-3,5C000400,-0723,0825,12120,033.2,045.6,0.244,743.0,01.18,0.508
2016-08-24 01:30:00,2027E-3,5C000400,-0723,0826,12279,033.2,045.6,0.245,743.1,01.18,0.508
2016-08-24 01:31:00,2219E-3,5C000400,-0723,0826,12235,033.2,045.6,0.245,743.1,01.18,0.508
2016-08-24 01:32:00,2214E-3,5C000400,-0723,0826,12191,033.2,045.6,0.244,743.0,01.18,0.508
2016-08-24 01:33:00,2083E-3,5C000400,-0723,0826,12188,033.2,045.6,0.244,743.0,01.18,0.508
2016-08-24 01:34:00,2225E-3,5C000400,-0723,0826,12284,033.2,045.6,0.245,743.1,01.18,0.508
2016-08-24 01:35:00,2122E-3,5C000400,-0723,0827,12209,033.2,045.6,0.244,743.1,01.18,0.508
2016-08-24 01:36:00,2204E-3,5C000400,-0723,0826,12245,033.2,045.6,0.244,743.0,01.18,0.508
2016-08-24 01:37:00,2105E-3,5C000400,-0723,0826,12237,033.2,045.6,0.244,743.0,01.18,0.508
2016-08-24 01:38:00,2157E-3,5C000400,-0723,0826,12138,033.3,045.6,0.245,743.1,01.18,0.508
2016-08-24 01:39:00,2087E-3,5C000400,-0723,0826,12184,033.3,045.6,0.244,743.0,01.18,0.508
2016-08-24 01:40:00,2141E-3,5C000400,-0723,0826,12242,033.2,045.6,0.244,743.0,01.18,0.508
2016-08-24 01:41:00,2215E-3,5C000400,-0723,0826,12005,033.2,045.6,0.245,743.0,01.18,0.508
2016-08-24 01:42:00,2113E-3,5C000400,-0723,0826,12313,033.2,045.6,0.244,743.0,01.18,0.508
2016-08-24 01:43:00,2154E-3,5C000400,-0723,0826,12126,033.3,045.6,0.244,743.0,01.18,0.508
2016-08-24 01:44:00,2180E-3,5C000400,-0723,0827,12277,033.2,045.6,0.245,742.9,01.18,0.508
2016-08-24 01:45:00,2063E-3,5C000400,-0723,0827,12226,033.3,045.6,0.245,742.9,01.18,0.508
2016-08-24 01:46:00,2014E-3,5C000400,-0723,0827,11982,033.3,045.6,0.244,743.0,01.18,0.508
2016-08-24 01:47:00,2162E-3,5C000400,-0723,0827,12244,033.3,045.6,0.245,743.0,01.18,0.508
2016-08-24 01:48:00,2267E-3,5C000400,-0723,0827,12116,033.3,045.6,0.244,743.0,01.18,0.508
2016-08-24 01:49:00,2287E-3,5C000400,-0723,0826,12161,033.2,045.6,0.244,743.0,01.18,0.508
2016-08-24 01:50:00,2083E-3,5C000400,-0723,0826,12124,033.3,045.6,0.244,743.0,01.18,0.508
2016-08-24 01:51:00,2057E-3,5C000400,-0723,0826,12186,033.3,045.6,0.245,743.0,01.18,0.508
2016-08-24 01:52:00,2100E-3,5C000400,-0723,0826,12197,033.3,045.6,0.244,743.0,01.18,0.508
2016-08-24 01:53:00,2125E-3,5C000400,-0723,0827,12280,033.3,045.6,0.244,743.0,01.18,0.508
2016-08-24 01:54:00,2196E-3,5C000400,-0723,0826,12283,033.3,045.6,0.245,743.0,01.18,0.508
2016-08-24 01:55:00,2075E-3,5C000400,-0723,0827,12211,033.3,045.6,0.244,743.0,01.18,0.508
2016-08-24 01:56:00,2085E-3,5C000400,-0723,0826,12113,033.3,045.6,0.244,743.0,01.18,0.508
2016-08-24 01:57:00,2108E-3,5C000400,-0723,0827,12224,033.3,045.6,0.244,742.9,01.18,0.508
2016-08-24 01:58:00,2204E-3,5C000400,-0723,0827,12272,033.3,045.6,0.244,743.0,01.18,0.508
2016-08-24 01:59:00,2262E-3,5C000400,-0723,0826,12273,033.3,045.6,0.244,742.9,01.18,0.508
2016-08-24 02:00:00,2091E-3,5C000400,-0723,0825,12147,033.3,045.6,0.244,743.0,01.18,0.508
2016-08-24 02:01:00,2098E-3,5C000400,-0723,0826,12169,033.3,045.6,0.244,742.9,01.18,0.508
2016-08-24 02:02:00,2255E-3,5C000400,-0723,0826,12130,033.3,045.6,0.244,742.9,01.18,0.508
2016-08-24 02:03:00,2146E-3,5C000400,-0723,0826,12282,033.3,045.6,0.244,742.9,01.18,0.508
2016-08-24 02:04:00,2170E-3,5C000400,-0723,0826,12166,033.3,045.6,0.244,742.9,01.18,0.508
2016-08-24 02:05:00,2063E-3,5C000400,-0723,0826,12179,033.3,045.6,0.244,742.9,01.18,0.508
2016-08-24 02:06:00,2212E-3,5C000400,-0723,0826,12095,033.3,045.6,0.244,742.9,01.18,0.508
2016-08-24 02:07:00,2136E-3,5C000400,-0723,0826,12234,033.3,045.6,0.244,742.9,01.18,0.508
2016-08-24 02:08:00,2165E-3,5C000400,-0723,0826,12240,033.3,045.6,0.244,742.9,01.18,0.508
2016-08-24 02:09:00,2129E-3,5C000400,-0723,0826,12159,033.3,045.6,0.244,742.9,01.18,0.508
2016-08-24 02:10:00,1998E-3,5C000400,-0723,0826,12139,033.3,045.6,0.244,742.9,01.18,0.508
2016-08-24 02:11:00,2179E-3,5C000400,-0723,0826,12189,033.3,045.6,0.244,742.9,01.18,0.508
2016-08-24 02:12:00,2391E-3,5C000400,-0723,0827,12193,033.3,045.6,0.244,742.9,01.18,0.508
2016-08-24 02:13:00,1973E-3,5C000400,-0723,0826,12352,033.3,045.6,0.244,742.9,01.18,0.508
2016-08-24 02:14:00,2203E-3,5C000400,-0723,0826,12183,033.3,045.6,0.244,742.9,01.18,0.508
2016-08-24 02:15:00,2271E-3,5C000400,-0723,0826,11936,033.3,045.6,0.244,742.9,01.18,0.508
2016-08-24 02:16:00,2013E-3,5C000400,-0723,0827,12046,033.3,045.6,0.244,742.9,01.18,0.508
2016-08-24 02:17:00,2256E-3,5C000400,-0723,0826,12159,033.3,045.6,0.244,742.9,01.18,0.508
2016-08-24 02:18:00,2162E-3,5C000400,-0723,0826,12212,033.3,045.6,0.244,742.9,01.18,0.508
2016-08-24 02:19:00,2205E-3,5C000400,-0723,0826,12245,033.3,045.6,0.244,742.9,01.18,0.508
2016-08-24 02:20:00,2156E-3,5C000400,-0723,0827,12157,033.3,045.6,0.244,742.9,01.18,0.508
2016-08-24 02:21:00,2224E-3,5C000400,-0723,0826,12234,033.3,045.6,0.244,742.9,01.18,0.508
2016-08-24 02:22:00,2258E-3,5C000400,-0723,0827,12283,033.3,045.6,0.244,742.9,01.18,0.508
2016-08-24 02:23:00,2090E-3,5C000400,-0723,0826,12292,033.3,045.6,0.244,742.9,01.18,0.508
2016-08-24 02:24:00,2277E-3,5C000400,-0723,0827,12304,033.3,045.6,0.245,742.9,01.18,0.508
2016-08-24 02:25:00,2086E-3,5C000400,-0723,0827,12331,033.3,045.6,0.244,742.9,01.18,0.508
2016-08-24 02:26:00,2108E-3,5C000400,-0723,0827,12282,033.3,045.6,0.244,742.5,01.18,0.508
2016-08-24 02:27:00,2182E-3,5C000400,-0723,0826,12277,033.3,045.6,0.244,742.7,01.18,0.508
2016-08-24 02:28:00,2162E-3,5C000400,-0723,0827,12132,033.3,045.6,0.245,743.0,01.18,0.508
2016-08-24 02:29:00,2137E-3,5C000400,-0723,0826,12196,033.3,045.6,0.244,742.9,01.18,0.508
2016-08-24 02:30:00,2057E-3,5C000400,-0723,0827,12200,033.3,045.6,0.244,742.9,01.18,0.508
2016-08-24 02:31:00,2143E-3,5C000400,-0723,0827,12292,033.3,045.6,0.244,742.8,01.18,0.508
2016-08-24 02:32:00,2141E-3,5C000400,-0723,0826,12385,033.3,045.6,0.244,742.9,01.18,0.508
2016-08-24 02:33:00,2054E-3,5C000400,-0723,0828,12193,033.3,045.6,0.244,742.9,01.18,0.508
2016-08-24 02:34:00,2251E-3,5C000400,-0723,0828,12303,033.3,045.6,0.244,742.9,01.18,0.508
2016-08-24 02:35:00,2175E-3,5C000400,-0723,0826,12208,033.3,045.6,0.245,742.9,01.18,0.508
2016-08-24 02:36:00,2192E-3,5C000400,-0723,0826,12318,033.3,045.6,0.244,742.8,01.18,0.508
2016-08-24 02:37:00,2009E-3,5C000400,-0723,0826,12157,033.3,045.6,0.244,742.9,01.18,0.508
2016-08-24 02:38:00,2201E-3,5C000400,-0723,0827,12278,033.3,045.6,0.244,742.8,01.18,0.508
2016-08-24 02:39:00,2072E-3,5C000400,-0723,0827,12202,033.2,045.6,0.244,742.8,01.18,0.508
2016-08-24 02:40:00,2138E-3,5C000400,-0723,0828,12206,033.3,045.6,0.244,742.8,01.18,0.508
2016-08-24 02:41:00,2079E-3,5C000400,-0723,0827,12114,033.3,045.6,0.244,742.8,01.18,0.508
2016-08-24 02:42:00,2091E-3,5C000400,-0723,0827,12186,033.2,045.6,0.244,742.8,01.18,0.508
2016-08-24 02:43:00,2085E-3,5C000400,-0723,0827,12251,033.3,045.6,0.245,742.8,01.18,0.508
2016-08-24 02:44:00,2135E-3,5C000400,-0723,0827,12199,033.2,045.6,0.244,742.7,01.18,0.508
2016-08-24 02:45:00,2239E-3,5C000400,-0723,0826,12326,033.2,045.6,0.245,742.8,01.18,0.508
2016-08-24 02:46:00,2196E-3,5C000400,-0723,0827,12171,033.2,045.6,0.245,742.8,01.18,0.508
2016-08-24 02:47:00,2119E-3,5C000400,-0723,0826,12258,033.3,045.6,0.244,742.8,01.18,0.508
2016-08-24 02:48:00,2168E-3,5C000400,-0723,0827,12149,033.2,045.6,0.244,742.8,01.18,0.508
2016-08-24 02:49:00,2171E-3,5C000400,-0723,0827,12234,033.2,045.6,0.244,742.8,01.18,0.508
2016-08-24 02:50:00,2063E-3,5C000400,-0723,0827,12334,033.2,045.6,0.244,742.8,01.18,0.508
2016-08-24 02:51:00,2126E-3,5C000400,-0723,0827,12033,033.2,045.6,0.244,742.8,01.18,0.508
2016-08-24 02:52:00,2208E-3,5C000400,-0723,0826,12179,033.2,045.6,0.244,742.8,01.18,0.508
2016-08-24 02:53:00,2165E-3,5C000400,-0723,0827,12306,033.2,045.6,0.245,742.8,01.18,0.508
2016-08-24 02:54:00,2147E-3,5C000400,-0723,0827,12413,033.3,045.6,0.244,742.8,01.18,0.508
2016-08-24 02:55:00,2126E-3,5C000400,-0723,0827,12272,033.2,045.6,0.244,742.8,01.18,0.508
2016-08-24 02:56:00,2172E-3,5C000400,-0723,0827,12267,033.2,045.6,0.244,742.8,01.18,0.508
2016-08-24 02:57:00,2180E-3,5C000400,-0723,0828,12231,033.3,045.6,0.245,742.7,01.18,0.508
2016-08-24 02:58:00,2256E-3,5C000400,-0723,0826,12156,033.2,045.6,0.244,742.7,01.18,0.508
2016-08-24 02:59:00,2239E-3,5C000400,-0723,0827,12328,033.2,045.6,0.244,742.7,01.18,0.508
2016-08-24 03:00:00,2164E-3,5C000400,-0723,0827,12241,033.2,045.6,0.244,742.7,01.18,0.508
2016-08-24 03:01:00,2192E-3,5C000400,-0723,0826,12166,033.2,045.6,0.245,742.7,01.18,0.508
2016-08-24 03:02:00,2176E-3,5C000400,-0723,0826,12203,033.2,045.6,0.244,742.7,01.18,0.508
2016-08-24 03:03:00,2139E-3,5C000400,-0723,0826,12314,033.2,045.6,0.244,742.7,01.18,0.508
2016-08-24 03:04:00,2184E-3,5C000400,-0723,0827,12261,033.2,045.6,0.244,742.6,01.18,0.508
2016-08-24 03:05:00,2256E-3,5C000400,-0723,0827,12235,033.2,045.6,0.245,742.7,01.18,0.508
2016-08-24 03:06:00,2122E-3,5C000400,-0723,0827,12291,033.2,045.6,0.244,742.7,01.18,0.508
2016-08-24 03:07:00,2192E-3,5C000400,-0723,0827,12327,033.2,045.6,0.244,742.7,01.18,0.508
2016-08-24 03:08:00,2308E-3,5C000400,-0723,0827,12126,033.2,045.6,0.244,742.7,01.18,0.508
2016-08-24 03:09:00,2051E-3,5C000400,-0723,0826,12193,033.2,045.6,0.245,742.7,01.18,0.508
2016-08-24 03:10:00,2228E-3,5C000400,-0723,0826,12062,033.2,045.6,0.244,742.7,01.18,0.508
2016-08-24 03:11:00,2138E-3,5C000400,-0723,0827,12326,033.2,045.6,0.244,742.7,01.18,0.508
2016-08-24 03:12:00,2146E-3,5C000400,-0723,0826,12233,033.2,045.6,0.245,742.7,01.18,0.508
2016-08-24 03:13:00,2190E-3,5C000400,-0723,0827,12280,033.2,045.6,0.245,742.7,01.18,0.508
2016-08-24 03:14:00,2231E-3,5C000400,-0723,0827,12264,033.2,045.6,0.245,742.7,01.18,0.508
2016-08-24 03:15:00,2185E-3,5C000400,-0723,0827,12198,033.2,045.6,0.244,742.7,01.18,0.508
2016-08-24 03:16:00,2058E-3,5C000400,-0723,0826,12216,033.2,045.6,0.244,742.7,01.18,0.508
2016-08-24 03:17:00,2106E-3,5C000400,-0723,0826,12164,033.2,045.6,0.245,742.7,01.18,0.508
2016-08-24 03:18:00,2232E-3,5C000400,-0723,0826,12239,033.2,045.6,0.244,742.7,01.18,0.508
2016-08-24 03:19:00,2116E-3,5C000400,-0723,0826,12354,033.2,045.6,0.244,742.7,01.18,0.508
2016-08-24 03:20:00,2246E-3,5C000400,-0723,0827,12185,033.2,045.6,0.244,742.7,01.18,0.508
2016-08-24 03:21:00,2208E-3,5C000400,-0723,0826,12207,033.2,045.6,0.245,742.7,01.18,0.508
2016-08-24 03:22:00,2388E-3,5C000400,-0723,0827,12266,033.2,045.6,0.244,742.7,01.18,0.508
2016-08-24 03:23:00,2130E-3,5C000400,-0723,0826,12141,033.2,045.6,0.244,742.7,01.18,0.508
2016-08-24 03:24:00,2075E-3,5C000400,-0723,0826,12349,033.2,045.6,0.245,742.7,01.18,0.508
2016-08-24 03:25:00,2161E-3,5C000400,-0723,0827,12235,033.2,045.6,0.245,742.7,01.18,0.508
2016-08-24 03:26:00,2074E-3,5C000400,-0723,0827,12225,033.2,045.6,0.244,742.7,01.18,0.508
2016-08-24 03:27:00,2074E-3,5C000400,-0723,0826,12353,033.2,045.6,0.244,742.7,01.18,0.508
2016-08-24 03:28:00,2192E-3,5C000400,-0723,0827,12243,033.1,045.6,0.245,742.7,01.18,0.508
2016-08-24 03:29:00,2236E-3,5C000400,-0723,0826,12098,033.2,045.6,0.245,742.7,01.18,0.508
2016-08-24 03:30:00,2102E-3,5C000400,-0723,0826,12202,033.1,045.6,0.244,742.7,01.18,0.508
2016-08-24 03:31:00,2270E-3,5C000400,-0723,0827,12139,033.1,045.6,0.244,742.7,01.18,0.508
2016-08-24 03:32:00,2205E-3,5C000400,-0723,0826,12087,033.2,045.6,0.245,742.7,01.18,0.508
2016-08-24 03:33:00,2267E-3,5C000400,-0723,0827,12137,033.2,045.6,0.245,742.7,01.18,0.508
2016-08-24 03:34:00,2157E-3,5C000400,-0723,0827,12111,033.2,045.6,0.244,742.7,01.18,0.508
2016-08-24 03:35:00,2233E-3,5C000400,-0723,0827,12252,033.2,045.6,0.244,742.7,01.18,0.508
2016-08-24 03:36:00,2249E-3,5C000400,-0723,0827,12295,033.2,045.6,0.245,742.7,01.18,0.508
2016-08-24 03:37:00,2218E-3,5C000400,-0723,0827,12160,033.2,045.6,0.245,742.7,01.18,0.508
2016-08-24 03:38:00,2152E-3,5C000400,-0723,0826,12214,033.2,045.6,0.244,742.7,01.18,0.508
2016-08-24 03:39:00,2193E-3,5C000400,-0723,0826,12186,033.2,045.6,0.244,742.7,01.18,0.508
2016-08-24 03:40:00,2245E-3,5C000400,-0723,0826,12144,033.1,045.6,0.245,742.7,01.18,0.508
2016-08-24 03:41:00,2082E-3,5C000400,-0723,0826,12219,033.1,045.6,0.245,742.7,01.18,0.508
2016-08-24 03:42:00,2067E-3,5C000400,-0723,0827,12213,033.1,045.6,0.244,742.7,01.18,0.508
2016-08-24 03:43:00,2312E-3,5C000400,-0723,0827,12409,033.1,045.6,0.245,742.7,01.18,0.508
2016-08-24 03:44:00,2259E-3,5C000400,-0723,0826,12227,033.1,045.6,0.245,742.6,01.18,0.508
2016-08-24 03:45:00,2178E-3,5C000400,-0723,0827,12239,033.1,045.6,0.245,742.6,01.18,0.508
2016-08-24 03:46:00,2029E-3,5C000400,-0723,0826,12245,033.1,045.6,0.245,742.6,01.18,0.508
2016-08-24 03:47:00,2201E-3,5C000400,-0723,0826,12230,033.1,045.6,0.245,742.7,01.18,0.508
2016-08-24 03:48:00,2142E-3,5C000400,-0723,0826,12146,033.1,045.6,0.245,742.6,01.18,0.508
2016-08-24 03:49:00,2117E-3,5C000400,-0723,0827,12165,033.1,045.6,0.245,742.7,01.18,0.508
2016-08-24 03:50:00,2126E-3,5C000400,-0723,0827,12336,033.1,045.6,0.244,742.6,01.18,0.508
2016-08-24 03:51:00,2176E-3,5C000400,-0723,0826,12291,033.1,045.6,0.245,742.7,01.18,0.508
2016-08-24 03:52:00,2271E-3,5C000400,-0723,0827,12218,033.1,045.6,0.245,742.6,01.18,0.508
2016-08-24 03:53:00,2063E-3,5C000400,-0723,0827,12228,033.1,045.6,0.245,742.7,01.18,0.508
2016-08-24 03:54:00,2166E-3,5C000400,-0723,0825,12289,033.1,045.6,0.244,742.6,01.18,0.508
2016-08-24 03:55:00,2198E-3,5C000400,-0723,0826,12303,033.1,045.6,0.245,742.6,01.18,0.508
2016-08-24 03:56:00,2136E-3,5C000400,-0723,0827,12127,033.1,045.6,0.245,742.6,01.18,0.508
2016-08-24 03:57:00,2093E-3,5C000400,-0723,0826,12224,033.1,045.6,0.245,742.6,01.18,0.508
2016-08-24 03:58:00,2136E-3,5C000400,-0723,0826,12204,033.1,045.6,0.244,742.6,01.18,0.508
2016-08-24 03:59:00,2189E-3,5C000400,-0723,0826,12312,033.1,045.6,0.245,742.7,01.18,0.508
2016-08-24 04:00:00,2346E-3,5C000400,-0723,0827,12171,033.1,045.6,0.245,742.7,01.18,0.508
2016-08-24 04:01:00,2173E-3,5C000400,-0723,0827,12199,033.1,045.6,0.245,742.6,01.18,0.508
2016-08-24 04:02:00,2173E-3,5C000400,-0723,0827,12259,033.1,045.6,0.244,742.7,01.18,0.508
2016-08-24 04:03:00,2110E-3,5C000400,-0723,0827,12342,033.1,045.6,0.245,742.7,01.18,0.508
2016-08-24 04:04:00,2263E-3,5C000400,-0723,0827,12203,033.1,045.6,0.245,742.7,01.18,0.508
2016-08-24 04:05:00,2139E-3,5C000400,-0723,0827,12180,033.1,045.6,0.245,742.6,01.18,0.508
2016-08-24 04:06:00,2232E-3,5C000400,-0723,0827,12182,033.1,045.6,0.245,742.6,01.18,0.508
2016-08-24 04:07:00,2229E-3,5C000400,-0723,0826,12154,033.1,045.6,0.244,742.7,01.18,0.508
2016-08-24 04:08:00,2124E-3,5C000400,-0723,0827,12164,033.1,045.6,0.245,742.7,01.18,0.508
2016-08-24 04:09:00,2255E-3,5C000400,-0723,0827,12206,033.1,045.6,0.245,742.6,01.18,0.508
2016-08-24 04:10:00,2295E-3,5C000400,-0723,0826,12234,033.1,045.6,0.245,742.6,01.18,0.508
2016-08-24 04:11:00,2134E-3,5C000400,-0723,0826,12190,033.1,045.6,0.244,742.6,01.18,0.508
2016-08-24 04:12:00,2138E-3,5C000400,-0723,0827,12259,033.1,045.6,0.245,742.6,01.18,0.508
2016-08-24 04:13:00,2099E-3,5C000400,-0723,0826,12172,033.1,045.6,0.245,742.6,01.18,0.508
2016-08-24 04:14:00,2078E-3,5C000400,-0723,0826,12242,033.1,045.6,0.245,742.6,01.18,0.508
2016-08-24 04:15:00,2187E-3,5C000400,-0723,0826,12201,033.0,045.6,0.244,742.6,01.18,0.508
2016-08-24 04:16:00,2253E-3,5C000400,-0723,0827,12274,033.0,045.6,0.245,742.6,01.18,0.508
2016-08-24 04:17:00,2025E-3,5C000400,-0723,0825,12260,033.0,045.6,0.245,742.6,01.18,0.508
2016-08-24 04:18:00,2179E-3,5C000400,-0723,0826,12105,033.0,045.6,0.245,742.5,01.18,0.508
2016-08-24 04:19:00,2265E-3,5C000400,-0723,0827,12322,033.0,045.6,0.245,742.5,01.18,0.508
2016-08-24 04:20:00,2181E-3,5C000400,-0723,0826,12254,033.0,045.6,0.244,742.6,01.18,0.508